Location: H�jsk�
(49.2579°N, 13.9492°E)
Time: 23:58:12
(UTC+00:00)

Daily predictions for brighter satellites

Satellite Brightness Start Highest point End
(mag) Time Altitude Azimuth Time Altitude Azimuth Time Altitude Azimuth
Cosmos 1603 3.8 15:37:00 10° SSW 15:42:45 87° ESE 15:48:33 10° NNE
SL-16 R/B 3.7 15:38:26 10° WSW 15:43:30 32° NW 15:48:35 10° NNE
USA 234 3.9 15:37:57 10° SE 15:44:25 62° SW 15:50:53 10° WNW
Cosmos 1939 Rocket 3.3 15:44:27 10° SE 15:48:21 41° ENE 15:52:14 10° N
SeaSat 1 4.3 15:45:09 10° N 15:48:59 23° NW 15:52:46 10° W
Okean 3 Rocket 4.0 15:46:30 10° N 15:50:52 43° ENE 15:55:09 10° SSE
NOSS 2-1 (D) 4.2 15:48:19 10° S 15:51:00 23° ESE 15:53:41 10° ENE
ATLAS 3B R/B 3.5 15:47:33 10° NW 15:54:39 64° SW 16:02:02 10° SSE
GEOS 3 Rocket 4.0 15:51:11 10° ESE 15:56:07 44° NE 16:01:02 10° NNW
NOAA 11 4.5 15:52:17 10° S 15:57:42 74° WSW 16:03:09 10° NNW
Cosmos 1862 3.5 15:54:01 10° N 15:57:54 49° ENE 16:01:45 10° SSE
Cosmos 2098 Rocket 4.1 15:52:37 10° N 15:58:40 74° E 16:05:45 10° SSE
Cosmos 1461 3.2 15:55:17 10° SSW 15:59:23 49° ESE 16:03:22 10° NE
USA 308 3.9 15:56:11 10° SSW 16:00:00 33° SE 16:03:43 11° ENE
ATLAS 5 CENTAUR R/B 3.5 15:54:42 10° NW 16:00:02 48° SW 16:06:19 10° SSE
SL-4 R/B 4.4 15:56:11 10° W 16:00:11 30° SW 16:04:18 10° SSE
CZ-2D R/B 4.2 15:57:19 10° SE 16:00:35 27° ENE 16:03:51 10° N
Cosmos 1812 Rocket 4.3 15:56:24 10° SSW 16:00:47 59° WNW 16:05:14 10° N
PSLV R/B 4.4 15:58:58 10° SE 16:02:14 31° ENE 16:05:33 10° N
CZ-4C R/B 3.8 16:00:13 10° NW 16:05:22 25° NNE 16:10:56 11° ENE
SJ 16-02 1.5 16:01:32 10° NNW 16:05:48 47° ENE 16:10:02 10° SE
CZ-2C R/B 3.1 16:00:57 10° SSE 16:06:03 84° WSW 16:10:55 10° NNW
Cosmos 1943 3.6 16:00:43 10° SW 16:06:19 64° WNW 16:11:56 10° NNE
Cosmos-2242 3.3 16:04:43 10° SSW 16:09:01 71° W 16:13:20 10° N
FengYun 1-2 T 4.2 16:03:30 10° SSE 16:09:08 81° ENE 16:14:44 10° NNW
NOAA 6 4.0 16:07:30 10° SSE 16:12:38 72° ENE 16:17:46 10° N
CZ-4B R/B 3.7 16:08:40 10° SE 16:13:35 35° ENE 16:18:26 10° N
CORIOLIS 4.1 16:09:22 10° SSE 16:14:42 68° ENE 16:20:06 10° N
Cosmos 1842 Rocket 4.4 16:11:35 10° SSE 16:15:28 31° E 16:19:25 10° NNE
Cosmos 1833 Rocket 4.5 16:15:14 10° ESE 16:16:45 11° E 16:17:02 11° E
CZ-4B R/B 3.6 16:15:16 10° S 16:19:29 59° WSW 16:23:30 10° NNW
CZ-4 R/B 3.3 16:24:42 13° NE 16:24:42 13° NE 16:25:50 10° NNE
Radarsat 4.5 16:19:22 10° SSE 16:24:33 79° ENE 16:29:47 10° NNW
Iridium 2 3.6 16:21:15 10° N 16:25:03 88° E 16:28:49 10° S
Cosmos 1766 Rocket 3.7 16:21:52 10° NNW 16:26:13 79° W 16:30:34 10° S
SL-08 R/B 4.2 16:25:52 10° N 16:30:30 50° WNW 16:35:02 10° SW
USA 305 3.1 16:26:40 10° SW 16:30:49 58° SSE 16:33:32 21° ENE
Cosmos 1606 2.7 16:28:08 10° S 16:31:49 56° E 16:35:31 10° NNE
Sich 1 4.4 16:29:51 10° NNE 16:32:14 18° NE 16:32:14 18° NE
ARGOS 3.6 16:28:51 10° SE 16:33:51 39° ENE 16:38:51 10° N
Okean O Rocket 2.1 16:32:33 10° SE 16:36:37 36° ENE 16:40:43 10° N
USA 276 2.0 16:33:44 10° W 16:36:52 75° N 16:38:19 29° E
COSMO-SKYMED 1 3.4 16:34:16 16° NE 16:37:04 30° E 16:40:53 10° SSE
Cosmos 1464 Rocket 4.0 16:34:06 10° S 16:40:26 76° E 16:46:50 10° NNE
Aureole 3 4.4 16:38:05 10° S 16:43:17 85° W 16:49:54 10° N
ERBS 3.3 16:43:57 10° SSW 16:46:44 28° SE 16:47:12 27° ESE
Meteor 2-19 Rocket 4.4 16:41:15 10° N 16:47:22 84° E 16:53:28 10° S
Cosmos 1763 Rocket 4.4 16:43:56 10° SSE 16:47:59 25° E 16:48:40 24° E
Cosmos 2221 2.4 16:45:38 10° S 16:49:52 76° E 16:54:10 10° NNE
NOSS 2-1 (E) 2.7 16:47:41 10° SW 16:50:56 86° SE 16:52:18 33° NE
USA 267 3.7 16:47:44 19° NE 16:52:28 55° NNW 16:58:48 10° W
CZ-2C R/B 2.8 16:47:58 10° NNE 16:53:01 44° E 16:57:58 10° S
ISS -3.7 16:50:24 10° W 16:53:47 69° NNW 16:54:50 40° ENE
Cosmos 1340 Rocket 2.8 16:51:44 10° N 16:55:46 62° ENE 16:59:47 10° SSE
deb Chang Zheng 4 3.4 16:53:28 10° SSE 16:57:44 69° ENE 17:02:03 10° N
YAOGAN 1 3.5 16:58:27 28° NE 16:58:27 28° NE 17:01:32 10° N
Cosmos 1933 4.2 16:54:23 10° SSE 16:57:31 30° ESE 16:57:31 30° ESE
deb Kosmos-1763 3.8 16:54:47 10° S 16:58:10 63° ESE 16:59:08 41° NE
Cosmos 2322 Rocket 4.2 16:57:50 10° N 16:59:20 11° NNE 16:59:31 11° NNE
Cosmos 990 Rocket 4.0 16:54:48 10° NNW 16:59:57 55° ENE 17:05:02 10° SE
Nadezhda 4 Rocket 4.0 16:53:45 10° N 17:00:05 89° WSW 17:06:25 10° S
Cosmos 1271 Rocket 3.9 16:57:45 10° SW 17:01:29 43° WNW 17:05:17 10° N
USA 229 DEB 4.0 16:54:55 10° NW 17:02:01 57° NE 17:07:26 20° ESE
USA 229 4.0 16:55:01 10° NW 17:02:07 57° NE 17:07:28 20° ESE
USA 306 2.8 16:58:13 10° WSW 17:02:29 85° SSE 17:04:01 39° ENE
Lacrosse 5 rocket 2.6 16:59:28 10° WNW 17:02:48 27° N 17:03:54 24° NNE
Landsat 5 3.9 17:02:20 36° ENE 17:03:05 39° E 17:06:59 10° SSE
Cosmos 1092 Rocket 4.0 17:00:43 10° N 17:07:03 65° ENE 17:13:20 10° SSE
Cosmos 1408 Rocket 4.0 17:03:42 10° NNW 17:07:59 61° W 17:12:16 10° S
Cosmos 1743 Rocket 3.4 17:05:38 10° N 17:10:00 78° E 17:14:18 10° SSE
ATLAS 2AS CENTAUR R/B 4.0 17:02:50 10° W 17:10:02 38° NNW 17:15:29 16° NNE
CZ-4 R/B 4.3 17:06:55 10° SSE 17:11:00 69° ENE 17:15:07 10° N
SL-16 R/B 4.0 17:08:51 10° N 17:11:16 14° NNE 17:11:16 14° NNE
Cosmos 1697 Rocket 2.9 17:06:48 10° NNW 17:12:15 47° NE 17:14:22 32° ESE
Cosmos 1980 Rocket 3.0 17:07:35 10° NNW 17:12:34 30° NE 17:12:43 30° NE
H-2A R/B 2.4 17:08:05 10° S 17:13:21 69° WSW 17:18:30 10° NNW
COSMOS 2406 4.3 17:11:39 10° SSE 17:15:10 25° ESE 17:15:10 25° ESE
USA 307 2.8 17:13:17 10° WSW 17:17:35 87° NNW 17:18:33 54° ENE
SJ-11-01 4.2 17:13:49 10° SSE 17:18:35 86° ENE 17:23:22 10° NNW
Cosmos 44 3.1 17:13:43 10° NW 17:18:37 86° NE 17:20:56 30° SE
Cosmos 2034 Rocket 4.1 17:15:40 10° SSW 17:21:50 79° W 17:28:02 10° N
ATLAS CENTAUR R/B 2.4 17:18:01 10° WSW 17:22:01 44° NW 17:23:56 27° NNE
Cosmos 1627 Rocket 4.3 17:16:17 10° N 17:22:32 71° ENE 17:28:40 10° SSE
Meteor 2-14 Rocket 4.3 17:17:03 10° N 17:23:10 64° ENE 17:29:11 10° SSE
Lacrosse 5 3.7 17:19:25 10° WNW 17:23:50 30° SW 17:28:14 10° S
SKYMED 2 3.4 17:22:52 26° NNE 17:25:18 87° ESE 17:29:39 10° SSW
NOSS 3-1 (A) 4.0 17:18:07 10° NW 17:25:25 75° NE 17:31:39 21° SE
Cosmos 1428 Rocket 4.3 17:19:24 10° N 17:25:33 76° E 17:31:40 10° SSE
Cosmos 1809 Rocket 4.3 17:21:55 10° N 17:28:04 80° ENE 17:34:10 10° SSE
Cosmos 1898 Rocket 3.4 17:23:33 10° NNW 17:28:51 70° ENE 17:31:16 32° SE
MOS 1-B Rocket 3.9 17:24:29 10° NNE 17:30:09 82° WNW 17:36:17 10° SSW
NOSS 3-1 (C) 4.2 17:22:58 10° NW 17:30:20 77° SW 17:39:02 10° SSE
Cosmos 1656 3.8 17:25:57 10° NNW 17:31:27 73° WSW 17:37:00 10° SSE
NOSS 2-1 (C) 4.1 17:28:58 10° WSW 17:31:57 35° NW 17:32:11 34° NNW
GEOS 3 Rocket 4.5 17:29:02 10° SSE 17:34:08 49° SW 17:39:11 10° NW
Cosmos 2084 3.8 17:30:17 10° NW 17:33:54 51° N 17:33:54 51° N
Meteor 2-21 Rocket 4.4 17:29:09 10° N 17:35:14 60° ENE 17:41:14 10° SSE
Meteor 1-20 Rocket 4.4 17:29:59 10° NNW 17:35:46 74° W 17:41:35 10° S
NOAA 15 4.5 17:31:54 10° SSE 17:37:10 71° ENE 17:42:28 10° N
Cosmos 1461 4.5 17:34:57 10° W 17:38:36 28° NW 17:39:49 24° N
NOSS 2-2 (D) 4.5 17:34:26 10° NNW 17:38:55 45° NE 17:38:55 45° NE
SL-08 RB Rocket 3.7 17:34:55 10° SSE 17:39:35 87° WSW 17:44:16 10° NNW
USA 308 2.9 17:35:28 10° WSW 17:39:42 70° NNW 17:39:46 70° NNW
NOSS 2-2 (E) 4.3 17:36:23 10° NW 17:41:14 54° NE 17:41:37 53° ENE
NOSS 2-1 (D) 4.4 17:38:22 10° W 17:41:11 30° NW 17:41:11 30° NW
Cosmos 468 Rocket 3.8 17:37:32 10° S 17:42:37 67° ESE 17:42:42 67° ESE
SJ 16-02 4.0 17:40:47 10° NW 17:44:03 21° W 17:47:18 10° SW
Cosmos 2279 Rocket 4.1 17:38:12 10° SSE 17:43:30 49° ESE 17:43:30 49° ESE
Cosmos 2360 4.1 17:41:36 10° NNW 17:47:23 76° ENE 17:48:26 59° SE
Cosmos 1634 Rocket 3.9 17:43:54 10° S 17:50:13 85° E 17:56:36 10° N
Cosmos 1805 Rocket 3.9 17:47:33 10° NNW 17:51:52 63° W 17:56:08 10° S
CZ-4B R/B 4.4 17:48:54 10° SSW 17:54:04 41° W 17:59:10 10° NNW
CZ-4C R/B 3.1 17:48:59 10° NW 17:55:32 48° NE 17:56:09 47° NE
CZ-4 R/B 3.3 18:00:42 22° NNW 18:00:42 22° NNW 18:02:12 10° NNW
IRS-1C Rocket 4.4 18:00:19 53° N 18:00:19 53° N 18:04:25 10° NNW
Cosmos 1833 Rocket 2.8 17:54:01 10° SSW 17:58:47 60° SSE 17:58:47 60° SSE
ATLAS 5 CENTAUR R/B 3.0 17:52:16 10° NW 17:58:54 46° N 17:58:54 46° N
Cosmos 2026 Rocket 4.5 18:02:09 10° NNW 18:08:13 58° W 18:14:11 10° S
USA 305 4.2 18:06:38 10° W 18:09:32 38° WNW 18:09:32 38° WNW
Sich 1 4.4 18:06:44 10° NNW 18:09:18 32° NW 18:09:18 32° NW
Okean O Rocket 3.6 18:09:11 10° SSW 18:13:01 28° W 18:16:53 10° NW
COSMO-SKYMED 1 4.2 18:11:30 24° NNW 18:13:15 33° WNW 18:17:07 10° SW
ATLAS CENTAUR R/B 2.9 18:12:16 10° SW 18:19:17 59° SW 18:19:17 59° SW
Cosmos 1937 Rocket 3.9 18:16:09 10° NNW 18:21:06 62° W 18:21:06 62° W
Meteor 2-16 Rocket 4.5 18:18:15 10° NNW 18:24:20 75° W 18:25:15 63° SSW
Cosmos 1763 Rocket 4.3 18:24:32 10° SW 18:28:44 47° W 18:28:44 47° W
Cosmos 2360 Rocket 4.5 18:26:34 10° N 18:27:22 13° N 18:27:22 13° N
ISS -0.3 18:27:30 10° WNW 18:27:49 12° WNW 18:27:49 12° WNW
CZ-2C R/B 4.2 18:28:53 11° N 18:33:09 31° WNW 18:37:38 10° WSW
USA 267 3.8 18:35:05 46° N 18:35:05 46° N 18:41:03 10° WNW
Cosmos 2369 4.4 18:33:44 10° NNW 18:38:07 50° WNW 18:38:07 50° WNW
Lacrosse 5 rocket 4.3 18:39:10 10° NW 18:39:29 12° NW 18:39:29 12° NW
Cosmos 2322 Rocket 4.4 18:40:11 10° NNW 18:41:19 15° N 18:41:19 15° N
Cosmos 1697 Rocket 4.1 18:51:05 10° NW 18:56:03 33° WSW 18:56:10 33° WSW
Cosmos 1980 Rocket 3.6 18:51:21 10° NW 18:54:31 33° NW 18:54:31 33° NW
SL-16 R/B 4.4 18:51:54 10° NNW 18:53:08 16° NNW 18:53:08 16° NNW
ATLAS CENTAUR R/B 4.5 18:59:24 10° NW 19:00:03 12° NW 19:00:03 12° NW
ATLAS 2AS CENTAUR R/B 4.3 18:56:51 10° NW 19:02:55 26° N 19:02:55 26° N
CZ-4C R/B 4.1 19:37:25 10° NW 19:41:21 36° WNW 19:41:21 36° WNW
